This is the latest recevied weather packets stored in our database for station/object DB0HRC-6. If no packets are shown the sender has not sent any weather packets the latest 10 day(s).
| Time | Temp. | Humidity | Pressure | Rain* | Wind** | Luminosity | Snow |
|---|---|---|---|---|---|---|---|
| 1777735810 | 27.22° C | 36% | 1013.2 hPa | 0 mm | - | - | - |
| 1777734912 | 27.22° C | 39% | 1013.4 hPa | 0 mm | - | - | - |
| 1777734010 | 26.67° C | 34% | 1013.6 hPa | 0 mm | - | - | - |
| 1777733110 | 27.22° C | 36% | 1013.7 hPa | 0 mm | - | - | - |
| 1777732210 | 26.67° C | 35% | 1014 hPa | 0 mm | - | - | - |
| 1777731310 | 26.11° C | 35% | 1014.3 hPa | 0 mm | - | - | - |
| 1777730410 | 26.11° C | 40% | 1014.4 hPa | 0 mm | - | - | - |
| 1777728611 | 26.11° C | 34% | 1014.7 hPa | 0 mm | - | - | - |
| 1777727710 | 26.11° C | 38% | 1015.2 hPa | 0 mm | - | - | - |
| 1777726811 | 25° C | 33% | 1015.3 hPa | 0 mm | - | - | - |
| 1777725911 | 25.56° C | 37% | 1015.8 hPa | 0 mm | - | - | - |
| 1777725010 | 25° C | 38% | 1016 hPa | 0 mm | - | - | - |
| 1777724110 | 25° C | 39% | 1016.2 hPa | 0 mm | - | - | - |
| 1777723210 | 25.56° C | 40% | 1016.4 hPa | 0 mm | - | - | - |
| 1777722310 | 24.44° C | 38% | 1016.6 hPa | 0 mm | - | - | - |
| 1777721410 | 24.44° C | 39% | 1016.8 hPa | 0 mm | - | - | - |
| 1777720509 | 25° C | 37% | 1017 hPa | 0 mm | - | - | - |
| 1777719610 | 24.44° C | 40% | 1017.3 hPa | 0 mm | - | - | - |
| 1777718711 | 24.44° C | 43% | 1017.3 hPa | 0 mm | - | - | - |
| 1777717810 | 23.89° C | 39% | 1017.5 hPa | 0 mm | - | - | - |
| 1777716910 | 23.33° C | 43% | 1017.8 hPa | 0 mm | - | - | - |
| 1777716010 | 23.33° C | 43% | 1017.9 hPa | 0 mm | - | - | - |
| 1777715110 | 22.22° C | 45% | 1018.1 hPa | 0 mm | - | - | - |
| 1777714210 | 22.22° C | 45% | 1018.3 hPa | 0 mm | - | - | - |
| 1777713311 | 21.67° C | 47% | 1018.5 hPa | 0 mm | - | - | - |
* Rain latest hour (hover to see other rain measurements)
** Current wind speed in m/s (hover to see current wind gust speed)